Dewpoint
62 61 61 61 60 60 59 58 57 56 55 54 55 53 54 54 55 55 55 56 55 55 55 54 56 56 56 56 56 56 55 56 54 53 52 51 51 51 52 52 52 53 52 53 53 51 50 48 49 50 52 52 52 53 55 53 53 54 53 53 52 54 65
61 60 60 59 59 60 59 58 57 55 56 55 54 54 54 53 54 54 54 54 54 54 53 53 54 55 55 54 54 54 54 54 53 54 52 51 51 50 50 50 50 50 50 50 50 49 48 47 47 47 47 49 50 51 51 52 52 51 51 52 52 53 54
60 60 60 59 59 58 56 57 56 56 54 55 55 53 54 51 53 53 53 53 53 53 54 53 53 54 54 52 54 54 53 53 53 53 52 51 51 51 50 50 49 49 49 48 48 47 47 47 46 46 46 46 46 47 49 50 49 50 50 51 52 51 53
59 60 59 58 57 57 55 55 54 54 55 54 54 54 53 52 52 52 52 52 52 53 53 52 52 53 53 52 53 53 53 52 52 52 51 51 50 50 49 49 49 48 48 47 46 47 46 45 45 45 45 44 44 45 47 48 49 48 49 49 49 50 60
59 58 58 57 55 53 54 54 54 55 54 54 54 53 52 52 52 52 52 51 51 52 51 51 52 52 51 50 51 51 51 52 52 52 50 50 49 49 49 49 50 50 50 48 48 48 47 46 45 44 43 44 44 44 45 46 46 46 44 46 47 46 48
58 56 55 55 54 55 54 53 53 53 53 52 52 51 51 51 51 51 51 50 50 51 51 50 50 50 50 48 48 49 51 50 49 51 50 50 50 49 48 49 49 49 47 47 47 48 48 47 46 43 43 43 42 42 42 42 41 41 42 44 43 43 45
56 56 55 53 54 54 53 53 53 52 51 51 51 51 51 50 49 49 50 49 49 49 49 50 50 49 49 44 47 49 49 50 49 49 49 50 50 49 49 48 47 47 46 46 46 46 45 45 43 43 42 42 42 41 41 40 40 39 40 40 40 41 42
55 54 54 54 54 53 53 52 52 51 51 50 50 50 50 51 50 49 48 48 49 49 49 49 49 49 50 46 47 50 49 49 49 49 48 48 48 47 48 48 48 47 45 46 46 46 45 45 44 43 42 40 39 40 39 38 38 38 38 38 39 39 38
53 53 53 53 53 54 52 52 51 51 50 50 49 49 49 49 49 48 47 47 48 49 48 47 47 47 48 49 47 48 48 48 48 47 47 47 47 48 48 48 46 46 44 46 45 46 45 46 44 43 42 40 39 37 38 37 37 37 38 37 38 38 38
53 52 52 52 52 52 52 51 51 50 50 50 49 49 49 49 49 49 48 48 48 48 48 47 46 46 47 48 47 46 47 48 48 47 47 47 47 48 47 46 44 45 43 45 45 45 46 45 44 42 42 41 41 38 37 36 37 37 37 37 37 38 39
51 51 51 50 51 51 51 50 50 49 49 48 47 48 49 48 48 47 48 47 47 47 47 47 46 46 47 48 47 46 46 47 46 47 46 46 47 46 47 45 43 44 43 45 43 44 44 43 42 41 41 41 41 39 38 37 36 37 37 38 37 37 38
50 50 50 50 50 48 47 48 48 48 49 49 48 48 48 46 48 47 47 45 46 45 46 46 47 47 46 47 47 47 45 46 46 46 46 46 45 45 45 44 43 43 42 43 42 42 42 41 41 40 40 40 40 39 38 38 35 36 38 37 38 38 38
47 48 49 49 47 46 46 46 46 47 48 47 48 47 45 44 45 44 44 43 44 44 44 45 45 45 47 46 46 46 44 44 43 44 44 44 44 44 43 41 42 42 42 41 41 41 40 40 40 39 39 39 38 38 39 37 36 35 37 37 37 37 37
48 47 47 47 47 47 46 46 46 46 45 46 46 46 44 42 41 42 41 42 41 42 42 44 45 46 46 45 45 45 43 43 42 43 44 42 42 42 42 40 39 40 41 41 40 40 39 38 38 38 39 38 37 37 37 36 35 35 36 37 38 37 37
47 46 47 47 46 45 45 46 46 45 45 45 44 42 42 44 42 41 40 39 40 40 40 41 43 44 44 45 45 44 44 43 43 42 44 40 41 43 42 40 39 40 40 40 39 38 37 37 36 36 36 37 36 37 37 36 35 35 34 36 36 37 37
45 46 46 46 45 44 45 45 44 44 43 43 43 43 43 43 41 39 39 39 38 38 38 39 42 42 43 43 43 44 44 44 43 42 41 40 39 40 40 40 38 40 41 39 38 38 38 37 37 36 35 35 35 36 36 36 36 35 34 35 36 36 36
46 45 45 45 45 44 43 44 43 43 42 43 41 44 42 41 41 40 39 37 37 36 37 38 39 40 41 43 43 42 42 43 42 41 41 40 40 39 39 39 39 39 39 38 37 37 36 36 36 35 35 35 35 35 36 36 36 35 34 35 35 35 36
45 45 45 45 45 44 43 43 43 39 42 41 41 42 42 41 40 38 39 36 36 36 36 37 39 40 41 43 43 44 42 42 42 41 41 41 40 39 38 38 38 38 38 37 37 35 35 36 36 36 35 34 34 36 37 36 36 35 34 34 35 35 36
44 44 43 44 43 43 43 42 42 42 40 40 41 41 42 41 39 36 35 35 36 36 36 38 38 39 40 42 44 45 44 43 43 40 40 40 38 38 38 37 38 37 37 36 35 36 37 37 36 35 35 35 35 35 36 36 35 35 34 35 35 35 35
44 44 44 44 44 41 42 43 40 40 41 41 41 41 41 40 40 37 36 36 36 37 37 37 37 38 39 40 41 43 43 43 42 42 40 39 38 38 38 38 39 38 36 36 36 37 37 36 36 35 36 36 35 36 36 35 35 36 36 35 35 35 35
42 42 42 41 40 42 41 41 41 41 41 42 41 40 41 41 41 38 37 37 37 37 37 36 37 37 37 38 40 42 43 43 42 40 42 40 41 41 38 38 38 37 37 37 39 37 37 35 35 35 35 36 36 36 36 36 36 36 36 36 35 35 35
42 41 40 41 41 41 41 41 40 40 41 42 44 40 40 40 38 37 36 37 36 36 37 37 38 38 38 38 38 41 43 41 41 40 40 41 42 40 39 39 41 36 42 42 41 41 40 40 37 35 35 36 37 36 36 37 37 36 36 36 35 35 35
38 39 39 39 39 40 39 41 41 41 41 41 42 42 41 40 36 36 36 35 36 37 36 38 38 38 38 38 38 40 42 43 42 42 40 40 42 40 41 38 40 40 42 41 41 38 37 38 38 38 36 36 36 37 37 37 36 35 35 34 34 35 35
37 37 38 39 39 37 38 40 40 41 41 42 43 43 43 40 37 36 34 34 35 35 36 36 38 36 36 37 38 40 41 43 41 41 39 37 40 36 38 35 36 37 38 39 39 37 36 36 36 37 38 39 41 40 37 36 35 35 35 35 35 34 35
35 36 36 34 36 37 39 39 40 41 42 43 43 44 44 42 40 38 36 34 34 34 35 38 36 36 36 36 37 39 42 42 42 43 39 37 40 37 37 37 37 39 37 38 36 33 34 36 36 36 37 38 38 38 37 37 36 34 35 35 34 34 34
33 35 35 35 37 37 38 38 39 40 41 42 43 42 42 43 42 40 37 34 33 32 33 37 36 36 36 36 36 38 41 43 43 42 42 38 40 39 40 39 37 38 36 38 37 33 32 33 36 37 38 38 37 37 35 35 36 37 35 35 34 34 35
34 34 35 35 37 36 37 38 41 41 41 42 41 41 42 43 43 41 38 36 34 32 34 37 35 36 36 35 35 37 43 44 43 41 42 36 38 41 39 39 37 37 34 35 35 34 33 33 34 35 35 35 35 36 36 36 36 36 37 36 35 35 36
33 34 35 36 37 36 38 40 39 40 40 40 40 40 41 42 43 42 40 37 35 34 37 35 35 35 35 35 36 40 40 40 41 40 42 39 37 41 38 40 39 37 34 34 35 34 34 34 34 35 33 33 34 34 33 34 34 34 35 36 36 36 37
34 35 36 36 37 37 39 39 39 40 40 40 40 40 40 40 42 42 42 38 36 35 36 35 35 35 35 35 36 41 37 37 39 38 39 38 33 40 38 38 39 37 34 33 35 35 35 35 34 33 33 33 33 34 33 35 35 36 37 36 37 36 36
36 35 36 36 36 38 39 39 41 41 40 40 39 39 39 38 38 40 41 39 37 36 36 36 35 35 35 35 37 39 36 34 36 37 37 38 35 40 41 39 38 37 34 32 34 33 34 35 34 33 33 33 33 34 31 32 34 35 36 37 36 36 36
34 36 36 36 38 40 40 41 40 41 40 40 39 39 39 37 36 37 40 40 39 37 37 38 35 35 35 36 37 38 35 33 35 35 36 38 36 38 38 42 38 37 33 32 34 33 34 36 33 33 33 33 33 32 30 30 32 34 35 36 35 35 36
34 36 36 38 39 39 39 40 41 42 41 39 40 38 38 38 38 37 38 40 43 40 38 38 35 35 35 36 37 37 36 33 33 34 35 36 36 35 38 41 41 37 34 34 33 34 34 35 34 33 33 33 33 31 29 30 30 31 33 33 32 33 35
36 36 36 39 39 40 40 41 43 41 41 36 35 36 37 38 39 38 39 40 41 42 40 39 37 35 36 36 36 38 36 34 32 33 34 34 34 33 35 33 35 34 33 33 33 33 34 34 33 33 34 33 33 30 30 30 33 33 34 31 31 33 36
39 38 38 39 40 40 41 43 44 43 40 39 40 42 41 40 40 40 40 40 39 42 42 40 39 35 35 35 36 36 36 35 34 33 34 33 33 33 31 31 33 35 33 34 34 34 34 34 34 35 35 34 32 32 32 31 32 37 30 30 32 34 36
40 41 39 40 40 40 41 41 41 40 39 42 43 44 44 40 40 40 40 41 41 42 40 45 40 36 34 34 35 36 37 36 37 36 34 32 33 34 32 31 33 34 34 34 34 34 34 34 34 37 34 31 32 32 32 34 34 28 28 29 31 34 36
40 41 41 41 40 40 42 42 43 42 41 42 42 42 43 43 42 41 41 41 42 41 41 39 36 39 34 34 34 35 34 34 35 40 35 33 34 33 32 33 34 36 34 34 34 34 34 34 34 32 31 31 31 32 34 30 28 28 27 28 31 35 37
40 40 41 40 40 40 41 41 40 41 41 40 40 39 39 39 40 41 40 42 40 40 41 39 36 36 37 33 34 34 33 33 34 36 36 35 34 33 33 33 34 33 34 34 34 34 33 33 30 31 31 31 31 33 30 28 26 28 29 29 32 35 36